This is the latest recevied weather packets stored in our database for station/object WP3XM. If no packets are shown the sender has not sent any weather packets the latest 10 day(s).
| Time | Temp. | Humidity | Pressure | Rain* | Wind** | Luminosity | Snow |
|---|---|---|---|---|---|---|---|
| 1778107963 | 27.78° C | 79% | 1018.3 hPa | 0 mm | - | 2 W/m² | - |
| 1778107658 | 28.33° C | 79% | 1018.3 hPa | 0 mm | - | 4 W/m² | - |
| 1778107356 | 28.33° C | 79% | 1018.1 hPa | 0 mm | - | 7 W/m² | - |
| 1778107052 | 27.78° C | 78% | 1018.2 hPa | 0 mm | - | 10 W/m² | - |
| 1778106748 | 28.33° C | 77% | 1017.9 hPa | 0 mm | - | 15 W/m² | - |
| 1778106445 | 28.33° C | 77% | 1017.8 hPa | 0 mm | - | 19 W/m² | - |
| 1778106140 | 28.33° C | 76% | 1017.6 hPa | 0 mm | - | 25 W/m² | - |
| 1778105839 | 28.33° C | 76% | 1017.8 hPa | 0 mm | - | 29 W/m² | - |
| 1778105537 | 28.89° C | 76% | 1017.9 hPa | 0 mm | - | 33 W/m² | - |
| 1778105234 | 29.44° C | 74% | 1017.7 hPa | 0 mm | - | 64 W/m² | - |
| 1778104928 | 28.89° C | 74% | 1017.7 hPa | 0 mm | - | 152 W/m² | - |
| 1778104625 | 28.33° C | 75% | 1017.6 hPa | 0 mm | - | 122 W/m² | - |
| 1778104321 | 28.33° C | 74% | 1017.5 hPa | 0 mm | - | 92 W/m² | - |
| 1778104018 | 28.33° C | 73% | 1017.9 hPa | 0 mm | - | 99 W/m² | - |
| 1778103715 | 28.33° C | 75% | 1017.7 hPa | 0 mm | - | 116 W/m² | - |
| 1778103414 | 28.33° C | 75% | 1017.9 hPa | 0 mm | - | 131 W/m² | - |
| 1778103110 | 28.89° C | 75% | 1017.5 hPa | 0 mm | - | 136 W/m² | - |
| 1778102808 | 28.33° C | 77% | 1017.7 hPa | 0 mm | - | 188 W/m² | - |
| 1778102502 | 28.33° C | 76% | 1017.6 hPa | 0 mm | - | 97 W/m² | - |
| 1778102198 | 28.89° C | 75% | 1017.5 hPa | 0 mm | - | 129 W/m² | - |
| 1778101895 | 28.89° C | 75% | 1017.6 hPa | 0 mm | - | 299 W/m² | - |
| 1778101592 | 28.89° C | 73% | 1017.4 hPa | 0 mm | - | 256 W/m² | - |
| 1778101288 | 28.33° C | 75% | 1017.3 hPa | 0 mm | - | 265 W/m² | - |
| 1778100985 | 28.89° C | 74% | 1017.5 hPa | 0 mm | - | 94 W/m² | - |
| 1778100680 | 28.89° C | 73% | 1017.5 hPa | 0 mm | - | 145 W/m² | - |
* Rain latest hour (hover to see other rain measurements)
** Current wind speed in m/s (hover to see current wind gust speed)